Home > Weather > Paterson > Past weeks

Flag for USA Past Weather in Paterson, New Jersey, USA — Yesterday and Last 2 Weeks

Now
90 °F

Scattered clouds.


Feels Like: 91 °F
Forecast: 73 / 94 °F
Wind: 10 mph from North

Location: Essex County Airport

Current Time: Jul 26, 2016 at 4:03:04 PM

Latest Report: Jul 26, 2016 at 2:53 PM


Visibility: 10 mi

Pressure: 29.89 "Hg

Humidity: 41%

Dew Point: 63 °F

Location of PatersonLocation

Past Weather in Paterson — Graph

°F

Paterson Temperature Yesterday

Maximum temperature yesterday: 94 °F (at 1:53 PM)
Minimum temperature yesterday: 73 °F (at 11:53 PM)
Average temperature yesterday: 81 °F

High & Low Weather Summary for the Past Weeks

 TemperatureHumidityPressure
High96 °F (Jul 23, 3:53 PM)97% (Jul 25, 9:53 PM)30.26 "Hg (Jul 25, 9:53 PM)
Low61 °F (Jul 12, 4:53 AM)23% (Jul 23, 3:53 PM)29.78 "Hg (Jul 22, 6:53 PM)
Average79 °F63%30.01 "Hg
* Reported Jul 11 2:53 PM — Jul 26 2:53 PM, Paterson, Weather by CustomWeather, © 2016

Note: Actual official high and low records may vary slightly from our data, if they occured in-between our weather recording intervals... More about our weather records

Advertising

Paterson Weather History for the Previous 24 Hours

Scroll right to see more
 ConditionsComfort  
Time TempWeatherWind HumidityBarometerVisibility
2:53 PM
Tue, Jul 26
90 °FScattered clouds.10 mph41%29.89 "Hg10 mi
1:53 PM90 °FScattered clouds.10 mph42%29.90 "Hg10 mi
12:53 PM87 °FScattered clouds.16 mph50%29.91 "Hg10 mi
11:53 AM86 °FScattered clouds.9 mph51%29.93 "Hg10 mi
10:53 AM84 °FSunny.9 mph57%29.93 "Hg10 mi
9:53 AM80 °FSunny.7 mph67%29.94 "Hg10 mi
8:53 AM77 °FSunny.5 mph77%29.94 "Hg10 mi
7:53 AM74 °FSunny.5 mph82%29.94 "Hg10 mi
6:53 AM71 °FSunny.No wind93%29.93 "Hg10 mi
5:53 AM70 °FClear.No wind93%29.91 "Hg10 mi
4:53 AM71 °FClear.No wind93%29.90 "Hg10 mi
3:53 AM71 °FClear.No wind93%29.89 "Hg10 mi
2:53 AM72 °FClear.No wind91%29.88 "Hg10 mi
1:53 AM72 °FClear.3 mph93%29.89 "Hg10 mi
12:53 AM73 °FClear.No wind94%29.90 "Hg10 mi
11:53 PM
Mon, Jul 25
73 °FClear.3 mph97%29.90 "Hg8 mi
10:53 PM74 °FClear.3 mph94%29.90 "Hg9 mi
9:53 PM74 °FPassing clouds.No wind97%29.90 "Hg10 mi
8:53 PM74 °FSunny.3 mph94%29.89 "Hg10 mi
7:53 PM75 °FLight rain. Passing clouds.6 mph90%29.88 "Hg10 mi
6:53 PM75 °FBroken clouds.6 mph88%29.92 "Hg10 mi
5:53 PM76 °FRain. Fog.5 mph91%29.91 "Hg3 mi
5:00 PM79 °FHeavy rain. Fog.9 mph88%29.86 "Hg1 mi
4:53 PM81 °FLight rain. Broken clouds.7 mph79%29.87 "Hg6 mi
Weather by CustomWeather, © 2016

See weather overviewHow to use our weather pages